Flag for Germany Weather past 2 weeks in Papenburg, Lower Saxony, Germany

Now
53 °F

Fog.


Feels Like: 51 °F
Forecast: 49 / 58 °F
Wind: 6 mph from Southwest

Location: Emden-Koenigspolder

Current Time: Oct 23, 2014 at 2:11:14 PM

Latest Report: Oct 23, 2014 at 1:00 PM


Visibility: 4 mi

Pressure: 30.14 "Hg

Humidity: 91%

Dew point: 50 °F

Location of PapenburgLocation

Historic Weather in Papenburg — Graph

°F

Papenburg temperature yesterday

Maximum temperature yesterday: 54 °F (at 2:00 PM)
Minimum temperature yesterday: 50 °F (at 6:00 AM)
Average temperature yesterday: 52 °F

Past Weeks' High & Low Weather Summary

 TemperatureHumidityPressure
High67 °F (Oct 19, 1:00 PM)100% (Oct 11, 7:00 AM)30.14 "Hg (Oct 11, 7:00 AM)
Low42 °F (Oct 11, 8:00 AM)57% (Oct 10, 3:00 PM)29.32 "Hg (Oct 21, 4:00 PM)
Average56 °F87%29.78 "Hg
* Reported Oct 8 1:00 PM — Oct 23 1:00 PM, Papenburg, Weather by CustomWeather, © 2014

Note: Actual official high and low records may vary slightly from our data, if they occured in-between our weather recording intervals... More about our weather records

Advertising

Papenburg weather history for previous 24 hours

 ConditionsComfort  
Time TempWeatherWind HumidityBarometerVisibility
1:00 PM
Oct 23
53 °FFog.6 mph91%30.14 "Hg4 mi
12:00 PM52 °FLow clouds.5 mph94%30.14 "Hg4 mi
10:00 AM51 °FLight rain. Low clouds.N/A94%30.14 "Hg4 mi
9:00 AM50 °FLow clouds.5 mph94%30.13 "Hg5 mi
8:00 AM50 °FLow clouds.3 mph94%30.11 "Hg6 mi
7:00 AM50 °FOvercast.3 mph89%30.11 "Hg8 mi
6:00 AM51 °FOvercast.3 mph84%30.11 "Hg13 mi
5:00 AM51 °FOvercast.2 mph80%30.11 "Hg18 mi
4:00 AM49 °FOvercast.2 mph83%30.11 "Hg19 mi
3:00 AM49 °FOvercast.2 mph84%30.11 "Hg25 mi
2:00 AM50 °FOvercast.2 mph81%30.10 "Hg22 mi
1:00 AM49 °FOvercast.2 mph83%30.10 "Hg19 mi
12:00 AM49 °FOvercast.2 mph76%30.09 "Hg25 mi
10:00 PM
Oct 22
52 °FOvercast.5 mph65%30.08 "Hg28 mi
9:00 PM53 °FOvercast.7 mph59%30.06 "Hg31 mi
8:00 PM52 °FOvercast.7 mph61%30.05 "Hg22 mi
7:00 PM52 °FOvercast.7 mph62%30.03 "Hg19 mi
6:00 PM53 °FOvercast.12 mph59%30.01 "Hg17 mi
4:00 PM53 °FOvercast.9 mph64%29.97 "Hg11 mi
3:00 PM53 °FOvercast.10 mph63%29.94 "Hg9 mi
2:00 PM54 °FOvercast.12 mph61%29.91 "Hg12 mi
Weather by CustomWeather, © 2014

See weather overviewHow to use our weather pages